Location: Canazei
(46.4667°N, 11.7667°E)
Time: 22:57:07
(UTC+00:00)

N. Korean satellite - Pass Details

Date: 01 October 2021
Orbit: 450 x 495 km, 97.3° (Epoch: 25 October)

Event Time Altitude Azimuth Distance (km) Brightness Sun altitude
Rises 03:50:22 0° 24° (NNE) 2,549 10.7 -14.7°
Reaches altitude 10° 03:52:42 10° 38° (NE) 1,673 10.0 -14.3°
Maximum altitude 03:55:43 25° 95° (E) 1,027 9.1 -13.8°
Drops below altitude 10° 03:58:44 10° 152° (SSE) 1,678 9.5 -13.3°
Sets 04:01:05 0° 166° (SSE) 2,559 10.3 -12.9°
